sat.trackr.live / text

‹ back to catalog

STARLINK-3919

NORAD 52580 · 2022-051AW

PAYLOAD ACTIVE UNKNOWN

§ Identity

Operator
Country
US
Launch date
2022-05-13
Launch site
AFWTR
Launch vehicle
Mass (kg)
RCS (m²)

Purposes: comms

External: N2YO · Heavens-Above · Gunter

§ Orbital elements

Epoch: 2026-09-20T04:38:38.920128Z

Period
94.01 min
Inclination
53.1610°
Eccentricity
0.0001096
Mean motion
15.31695026 rev/d
Perigee alt
470.0 km
Apogee alt
471.5 km
Semi-major
6,848.9 km
B*
2.2146e-5
RAAN
335.2572°
Arg perigee
88.2660°
Mean anomaly
271.8467°
Rev number
24,081

§ Raw data

STARLINK-39191 52580U 22051AW  26263.19350602  .00000322  00000+0  22146-4 0  99902 52580  53.1610 335.2572 0001096  88.2660 271.8467 15.31695026240819

JSON: /api/v1/satellites/52580 · /tle

For live sub-satellite position, see the globe view (requires WebGL).

§ Visibility from observer

Set your observer location to see the next 7 days of passes ≥ 10°. The values pass through the URL so the page stays shareable.

No JS? Fill the form by hand. The geolocation button needs JavaScript.